GW3202 Weather Reports


Display with metric or nautical units.
time (UTC)temp
F
wind
direction
speed
MPH
gust
MPH
rain 1hr
in
rain 24hr
in
rain mn
in
humidity
%
barometer
mb
20260901224005 72 182 7.0 15.0 0.00 0.00 0.00 84 1020.2
20260901223004 73 147 6.0 15.0 0.00 0.00 0.00 84 1020.0
20260901221004 73 138 4.0 14.0 0.00 0.00 0.00 76 1020.2
20260901215004 74 188 2.0 12.0 0.00 0.00 0.00 72 1020.4
20260901214004 74 180 4.0 13.0 0.00 0.00 0.00 72 1020.4
20260901212006 75 180 1.0 8.0 0.00 0.00 0.00 70 1020.6
20260901211003 75 164 3.0 8.0 0.00 0.00 0.00 69 1020.5
20260901210003 74 196 5.0 9.0 0.00 0.00 0.00 69 1020.6
20260901203004 73 148 5.0 10.0 0.00 0.00 0.00 72 1021.0
20260901202003 72 203 3.0 14.0 0.00 0.00 0.00 74 1021.4
20260901201004 71 194 4.0 15.0 0.00 0.00 0.00 76 1021.3
20260901200003 72 158 7.0 18.0 0.00 0.00 0.00 77 1021.5
20260901195006 73 188 5.0 18.0 0.00 0.00 0.00 73 1021.6
20260901194004 76 153 8.0 16.0 0.00 0.00 0.00 72 1021.6
20260901193004 77 192 7.0 16.0 0.00 0.00 0.00 65 1021.6
20260901192004 77 139 5.0 15.0 0.00 0.00 0.00 63 1021.8
20260901191005 78 194 3.0 14.0 0.00 0.00 0.00 62 1021.8
20260901190003 78 180 3.0 14.0 0.00 0.00 0.00 62 1021.9
20260901185004 77 194 4.0 13.0 0.00 0.00 0.00 62 1022.0
20260901184004 77 165 6.0 12.0 0.00 0.00 0.00 59 1022.0
20260901183004 77 167 3.0 13.0 0.00 0.00 0.00 60 1022.3
20260901182004 78 178 5.0 12.0 0.00 0.00 0.00 58 1022.2
20260901181003 78 141 5.0 9.0 0.00 0.00 0.00 62 1022.2
20260901180003 77 160 2.0 9.0 0.00 0.00 0.00 62 1022.2
20260901175003 76 136 2.0 8.0 0.00 0.00 0.00 63 1022.2
20260901174003 76 221 3.0 8.0 0.00 0.00 0.00 65 1022.2
20260901172003 74 242 2.0 7.0 0.00 0.00 0.00 72 1022.4
20260901171004 74 309 2.0 3.0 0.00 0.00 0.00 71 1022.5
20260901164003 71 259 0.0 6.0 0.00 0.00 0.00 76 1022.2
20260901163004 71 329 3.0 6.0 0.00 0.00 0.00 75 1022.3
20260901162004 71 4 0.0 5.0 0.00 0.00 0.00 76 1022.3
20260901161004 69 355 2.0 5.0 0.00 0.00 0.00 79 1022.4
20260901160003 70 277 2.0 6.0 0.00 0.00 0.00 79 1022.4
20260901155003 69 43 2.0 6.0 0.00 0.00 0.00 80 1022.6
20260901154004 69 331 2.0 7.0 0.00 0.00 0.00 81 1022.5
20260901153003 70 79 2.0 7.0 0.00 0.00 0.00 80 1022.5
20260901152004 69 351 2.0 7.0 0.00 0.00 0.00 79 1022.5
20260901151004 70 102 3.0 6.0 0.00 0.00 0.00 78 1022.5
20260901150004 70 111 3.0 7.0 0.00 0.00 0.00 80 1022.5
20260901144003 68 36 3.0 7.0 0.00 0.00 0.00 82 1022.5
20260901143003 69 68 3.0 6.0 0.00 0.00 0.00 82 1022.6
20260901142005 67 20 1.0 6.0 0.00 0.00 0.00 83 1022.7
20260901141004 69 113 4.0 5.0 0.00 0.00 0.00 82 1022.4
20260901140003 68 95 2.0 5.0 0.00 0.00 0.00 83 1022.5
20260901134004 67 64 1.0 3.0 0.00 0.00 0.00 85 1022.4
20260901133004 66 63 1.0 3.0 0.00 0.00 0.00 88 1022.5
20260901132004 64 114 0.0 3.0 0.00 0.00 0.00 91 1022.4
20260901130003 63 125 1.0 3.0 0.00 0.00 0.00 93 1022.4
20260901125007 63 91 1.0 2.0 0.00 0.00 0.00 94 1022.3
20260901122004 64 120 1.0 2.0 0.00 0.00 0.00 94 1022.0
20260901121004 63 78 0.0 2.0 0.00 0.00 0.00 94 1022.0
20260901120003 64 104 2.0 2.0 0.00 0.00 0.00 94 1021.8
20260901115003 64 106 1.0 2.0 0.00 0.00 0.00 94 1021.9
20260901112006 64 111 1.0 2.0 0.00 0.00 0.00 95 1021.8
20260901111004 64 164 2.0 3.0 0.00 0.00 0.00 95 1021.7
20260901110004 64 152 1.0 3.0 0.00 0.00 0.00 95 1021.6
20260901104004 64 22 1.0 2.0 0.00 0.00 0.00 94 1021.8
20260901103004 64 53 1.0 3.0 0.00 0.00 0.00 94 1021.8
20260901102005 64 342 1.0 5.0 0.00 0.00 0.00 94 1021.9
20260901101004 65 323 3.0 5.0 0.00 0.00 0.00 93 1021.8
20260901100003 65 359 1.0 2.0 0.00 0.00 0.00 92 1022.0
20260901095003 65 356 1.0 2.0 0.00 0.00 0.00 92 1021.9
20260901094005 65 3 1.0 3.0 0.00 0.00 0.00 91 1022.0
20260901093004 65 302 0.0 3.0 0.00 0.00 0.00 91 1021.9
20260901092004 65 58 1.0 3.0 0.00 0.00 0.00 90 1021.9
20260901091004 65 95 1.0 2.0 0.00 0.00 0.00 90 1022.0
20260901090004 65 298 0.0 2.0 0.00 0.00 0.00 90 1022.3
20260901085003 65 82 1.0 3.0 0.00 0.00 0.00 91 1022.4
20260901084004 65 100 1.0 3.0 0.00 0.00 0.00 91 1022.4
20260901083003 65 90 1.0 3.0 0.00 0.00 0.00 91 1022.6
20260901081004 65 145 1.0 3.0 0.00 0.00 0.00 91 1022.7
20260901080003 65 127 1.0 3.0 0.00 0.00 0.00 92 1022.8
20260901075004 65 98 1.0 5.0 0.00 0.00 0.00 92 1022.9
20260901074004 65 176 0.0 5.0 0.00 0.00 0.00 92 1022.9
20260901073003 65 158 2.0 5.0 0.00 0.00 0.00 92 1022.8
20260901072005 65 262 1.0 3.0 0.00 0.00 0.00 92 1022.9
20260901071003 65 151 0.0 3.0 0.00 0.00 0.00 92 1022.9
20260901070004 65 122 1.0 3.0 0.00 0.00 0.00 92 1022.9
20260901065004 65 122 1.0 3.0 0.00 0.00 0.00 92 1022.8
20260901064004 65 121 2.0 3.0 0.00 0.00 0.00 92 1022.8
20260901063004 64 112 0.0 1.0 0.00 0.00 0.00 93 1022.6
20260901062004 64 345 0.0 3.0 0.00 0.00 0.00 93 1022.9
20260901061007 64 83 1.0 5.0 0.00 0.00 0.00 93 1022.7
20260901060004 64 103 1.0 3.0 0.00 0.00 0.00 93 1022.7
20260901054004 64 244 3.0 6.0 0.00 0.00 0.00 93 1022.7
20260901053004 64 256 3.0 6.0 0.00 0.00 0.00 92 1022.5
20260901052010 66 337 5.0 6.0 0.00 0.00 0.00 89 1022.2
20260901051005 66 277 0.0 3.0 0.00 0.00 0.00 86 1022.2
20260901050004 67 258 1.0 10.0 0.00 0.00 0.00 86 1022.4
20260901045004 67 153 7.0 14.0 0.00 0.00 0.00 86 1022.5
20260901044004 67 114 5.0 14.0 0.00 0.00 0.00 86 1022.6
20260901043004 67 157 5.0 13.0 0.00 0.00 0.00 85 1022.6
20260901041004 67 137 6.0 16.0 0.00 0.00 0.00 84 1022.6
20260901040004 67 145 8.0 18.0 0.00 0.00 0.00 83 1022.4
20260901035006 67 133 4.0 18.0 0.00 0.00 0.00 85 1022.3
20260901034004 68 135 7.0 22.0 0.00 0.00 0.00 81 1022.4
20260901033005 68 133 8.0 17.0 0.00 0.00 0.00 80 1022.5
20260901032005 69 129 5.0 16.0 0.00 0.00 0.00 78 1022.2
20260901031004 69 139 10.0 16.0 0.00 0.00 0.00 78 1022.1
20260901030004 69 141 9.0 18.0 0.00 0.00 0.00 79 1021.8
20260901025004 69 131 13.0 18.0 0.00 0.00 0.00 78 1021.6
20260901023005 69 119 10.0 16.0 0.00 0.00 0.00 80 1021.2
20260901022005 69 126 7.0 16.0 0.00 0.00 0.00 79 1021.0
20260901021004 69 99 7.0 20.0 0.00 0.00 0.00 78 1021.1
20260901020003 69 123 6.0 16.0 0.00 0.00 0.00 78 1020.9
20260901015004 69 87 4.0 17.0 0.00 0.00 0.00 80 1020.8
20260901014004 69 151 8.0 17.0 0.00 0.00 0.00 79 1020.7
20260901013004 69 125 8.0 22.0 0.00 0.00 0.00 81 1020.7
20260901012004 69 126 9.0 17.0 0.00 0.00 0.00 82 1020.6
20260901011004 69 178 5.0 20.0 0.00 0.00 0.00 81 1020.8
20260901010004 70 170 9.0 22.0 0.00 0.00 0.00 80 1020.7
20260901003005 71 157 9.0 20.0 0.00 0.00 0.00 84 1020.4
20260901002004 71 147 6.0 18.0 0.00 0.00 0.00 83 1020.2
20260901001005 72 144 12.0 17.0 0.00 0.00 0.00 83 1020.3
20260901000005 73 151 6.0 15.0 0.00 0.00 0.00 77 1020.1
20260831235005 74 145 6.0 13.0 0.00 0.00 0.00 74 1020.0
20260831234004 74 164 6.0 13.0 0.00 0.00 0.00 73 1019.8
20260831233005 74 184 7.0 13.0 0.00 0.00 0.00 74 1019.7
20260831232005 75 303 5.0 15.0 0.00 0.00 0.00 73 1019.5
20260831231004 76 188 4.0 14.0 0.00 0.00 0.00 71 1019.4
20260831230004 74 176 5.0 13.0 0.00 0.00 0.00 74 1019.2
20260831225005 74 174 3.0 12.0 0.00 0.00 0.00 75 1019.5